SCP
0 0 0 0 0 0 0 0 0 0 0 0 0 0 0 0 0 -0 -0 -0 -0 -0 -0 -0 0 0 0 0 0 0 0 0 0 0 0 0 0 0 0 0 0 0 0 0
0 0 0 0 0 0 0 0 0 0 -0 0 0 0 0 0 0 -0 -0 -0 -0 -0 -0 -0 0 0 0 0 0 0 0 0 0 0 0 0 0 0 0 0 0 0 0 0
0 0 0 -0 0 0 0 0 0 0 0 0 0 0 0 0 0 -0 -0 -0 -0 -0 -0 -0 0 0 0 0 0 0 0 0 0 0 0 0 0 0 0 0 0 0 0 0
0 0 0 0 0 0 0 0 0 0 0 0 0 0 0 0 0 -0 0 -0 0 0 0 0 0 0 0 0 0 0 0 0 0 0 0 0 0 0 0 0 0 0 0 0
0 0 0 0 0 0 0 0 -0 -0 0 0 0 0 0 0 0 0 0 0 0 0 0 0 0 0 0 0 0 0 0 0 0 0 0 0 0 0 0 0 0 0 0 0
0 0 0 0 0 0 0 0 0 0 0 0 0 0 0 0 0 0 0 0 0 0 0 0 0 0 0 0 0 0 0 0 0 0 0 0 0 0 0 0 0 0 0 0
0 0 0 0 0 0 0 0 0 0 0 0 0 0 0 0 0 0 0 0 0 0 0 0 0 0 0 0 0 0 0 0 0 0 0 0 0 0 0 0 0 0 0 0
0 0 0 0 0 0 0 0 0 0 0 0 0 0 0 0 0 0 0 0 0 0 0 0 0 0 0 0 0 0 0 0 0 0 0 0 0 0 0 0 0 0 0 0
0 0 0 0 0 0 -0 0 0 0 0 0 0 0 0 0 0 0 0 0 0 0 0 0 0 0 0 0 0 0 0 0 0 0 0 0 0 0 0 0 0 0 0 0
0 0 0 0 -0 -0 -0 0 0 0 0 0 0 0 0 0 0 0 0 0 0 0 0 0 0 0 0 0 0 0 0 0 0 0 0 0 0 0 0 0 0 0 0 0
0 0 0 0 0 0 0 0 0 0 0 0 0 0 0 0 0 0 0 0 0 0 0 0 0 0 0 0 0 0 0 0 0 0 0 0 0 0 0 0 0 0 0 0
0 0 0 0 0 0 0 0 -0 -0 0 -0 -0 0 0 0 0 0 0 0 0 0 0 0 0 0 0 0 0 0 0 0 0 0 0 0 0 0 0 0 0 0 0 0
0 0 0 0 -0 -0 -0 0 0 0 -0 0 0 0 0 0 0 0 0 0 0 0 0 0 0 0 0 0 0 0 0 0 0 0 0 0 0 0 0 0 0 0 0 0
0 0 0 0 0 0 0 0 -0 -0 0 -0 0 0 0 0 0 0 0 0 0 0 0 0 0 0 0 0 0 0 0 0 0 0 0 0 0 0 0 0 0 0 0 0
0 0 0 0 0 0 0 0 0 0 0 0 -0 -0 -0 0 0 0 0 0 0 0 0 0 0 0 0 0 0 0 0 0 0 0 0 0 0 0 0 0 0 0 0 0
0 0 0 0 0 0 0 0 0 0 0 0 0 0 0 0 0 0 0 0 0 0 0 0 0 0 0 0 0 0 0 0 0 0 0 0 0 0 0 0 0 0 0 0
0 0 0 0 0 0 0 0 0 0 0 0 0 0 0 0 0 0 0 0 0 0 0 0 0 0 0 0 0 0 0 0 0 0 0 0 0 0 0 0 0 0 0 0
0 0 0 0 0 0 0 0 0 0 0 0 0 0 0 0 0 0 0 0 0 0 0 0 0 0 0 0 0 0 0 0 0 0 0 0 0 0 0 0 0 0 0 0
0 0 0 0 0 0 0 0 0 0 0 0 0 0 0 0 0 0 0 0 0 0 0 0 0 0 0 0 0 0 0 0 0 0 0 0 0 0 0 0 0 0 0 0
0 0 0 0 0 0 0 0 0 0 0 0 0 0 0 0 0 0 0 0 0 0 0 0 0 0 0 0 0 0 0 0 0 0 0 0 0 0 0 0 0 0 0 0
0 0 0 0 0 0 0 0 0 0 0 0 0 0 0 0 0 0 0 0 0 0 0 0 0 0 0 0 0 0 0 0 0 0 0 0 0 0 0 0 0 0 0 0
0 0 0 0 0 0 0 0 0 0 0 0 0 0 0 0 0 0 0 0 0 0 0 0 0 0 0 0 0 0 0 0 0 0 0 0 0 0 0 0 0 0 0 0
0 0 0 0 0 0 0 0 0 0 0 0 0 0 0 0 0 0 0 0 0 0 0 0 0 0 0 0 0 0 0 0 0 0 0 0 0 0 0 0 0 0 0 0
0 0 0 0 0 0 0 0 0 0 0 0 -0 0 0 0 0 0 0 0 0 0 0 0 0 0 0 0 0 0 0 0 0 0 0 0 0 0 0 0 0 0 0 0
0 0 0 0 0 0 0 0 0 0 0 0 0 -0 0 0 0 0 0 0 0 0 0 0 0 0 0 0 0 0 0 0 0 0 0 0 0 0 0 0 0 0 0 0
0 0 0 0 0 0 0 0 0 0 -0 0 0 -0 0 0 0 0 0 0 0 0 0 0 0 0 0 0 0 0 0 0 0 0 0 0 0 0 0 0 0 0 0 0
0 0 0 0 0 0 0 -0 -0 0 0 -0 0 0 0 0 0 0 0 0 0 0 0 0 0 0 0 0 0 0 0 0 0 0 0 0 0 0 0 0 0 0 0 0
Wind_Speed_500mb
16 14 9 14 15 26 27 34 20 34 30 35 25 27 41 43 39 41 47 51 56 57 54 51 50 48 44 40 35 30 27 24 20 17 15 15 16 17 18 19 20 22 24 25
8 2 14 14 26 33 37 34 38 42 55 44 55 43 37 39 43 50 52 58 60 60 59 57 55 52 47 43 38 34 29 26 23 20 17 15 16 17 17 18 20 21 24 25
10 4 5 15 26 29 16 21 20 20 29 15 11 19 28 35 45 53 56 59 64 66 66 63 58 54 50 45 41 38 32 28 25 22 19 17 16 17 18 18 19 21 23 24
6 2 16 6 4 7 23 22 36 38 41 29 24 16 23 27 37 46 53 59 62 63 65 64 58 55 51 48 46 41 36 32 28 24 21 20 19 18 19 20 21 22 23 24
7 12 19 25 9 13 12 10 7 31 35 36 23 23 44 41 39 42 43 48 56 58 59 62 61 57 56 54 50 45 41 36 31 28 25 23 23 23 23 24 25 26 26 26
6 7 10 2 5 8 8 13 6 9 21 9 7 6 4 11 18 45 44 42 47 54 57 60 61 60 60 57 54 50 43 38 35 32 28 27 27 27 27 28 27 28 28 29
19 10 15 14 18 14 6 4 9 12 13 4 9 16 22 19 20 18 37 40 42 52 58 60 61 62 63 60 59 49 43 42 39 35 32 30 29 29 29 29 31 30 30 29
8 10 17 18 16 9 10 14 20 20 28 24 33 37 38 34 29 23 24 38 44 51 58 61 65 64 64 64 54 51 48 46 41 38 36 33 31 30 31 31 31 32 32 29
20 11 9 24 7 21 17 31 30 31 35 42 43 49 40 33 33 28 26 33 42 47 56 63 66 65 64 58 56 53 53 49 44 40 39 36 34 32 32 32 32 32 32 31
4 16 30 30 32 36 32 16 23 41 51 46 47 44 47 42 35 34 33 35 40 47 56 63 65 65 60 58 55 54 55 51 48 45 42 40 38 36 35 33 32 33 31 29
13 26 42 41 21 3 17 36 43 39 29 29 35 48 45 45 48 42 39 40 43 46 52 58 62 63 60 58 57 58 56 53 51 49 46 44 42 40 38 34 32 33 32 31
22 8 10 22 15 43 43 50 37 23 40 49 61 67 62 56 49 50 46 44 47 49 52 54 59 61 61 58 57 59 58 56 53 50 47 45 44 43 39 37 34 33 34 33
41 34 40 51 62 66 57 40 50 65 73 76 72 73 71 65 58 50 51 51 51 51 49 52 55 59 61 60 59 59 59 56 54 50 48 45 43 41 37 35 29 31 32 31
34 33 45 48 48 48 54 68 76 78 74 75 75 72 62 57 56 56 54 53 48 50 52 53 54 58 59 60 60 59 57 57 54 52 49 45 41 39 38 34 28 25 28 27
60 55 67 68 65 65 64 58 64 67 77 80 74 71 59 56 53 52 49 47 48 52 55 58 59 58 58 60 62 59 58 57 55 53 49 44 41 40 37 33 31 28 27 27
37 44 50 59 64 67 67 70 72 72 66 76 71 65 55 53 50 50 49 48 53 56 57 59 60 56 57 57 60 60 58 55 52 50 48 44 42 39 36 32 30 27 25 24
33 37 35 42 48 53 58 58 62 64 63 69 72 73 64 52 44 47 54 56 57 54 58 61 56 56 55 56 58 58 57 54 52 52 49 44 41 38 35 31 30 27 25 25
27 32 33 38 46 49 57 56 57 60 61 64 72 73 70 65 56 45 46 49 57 62 67 62 60 60 57 55 57 57 55 53 53 52 47 44 41 37 35 32 29 27 26 25
15 23 26 31 35 40 48 59 63 65 65 62 63 73 73 74 81 75 69 66 65 66 71 64 63 62 61 60 58 57 55 54 53 52 48 45 41 39 35 33 30 28 26 27
22 24 31 35 36 38 46 52 57 61 61 61 60 66 75 74 74 78 81 82 73 70 69 65 61 65 65 63 62 57 55 55 54 53 50 46 42 37 34 34 31 28 26 27
24 29 32 37 43 48 48 50 55 59 61 59 58 61 69 67 70 72 75 79 72 70 65 59 59 64 68 67 67 62 58 57 57 55 52 49 44 39 37 35 32 29 26 23
25 31 36 38 41 48 53 56 54 56 57 57 51 50 54 62 66 65 65 67 66 63 58 59 62 64 65 66 70 63 60 57 56 55 52 50 43 42 40 38 35 30 24 21
25 30 38 43 47 52 54 54 56 56 56 54 49 43 45 48 51 55 61 54 57 61 53 52 57 60 59 67 72 64 60 57 57 56 55 51 42 43 42 40 35 30 28 27
32 34 37 45 48 49 56 56 56 54 52 48 44 39 35 36 40 42 46 45 44 46 44 47 47 55 63 72 73 66 62 58 57 56 57 50 44 40 43 42 38 33 33 31
38 38 37 39 46 48 51 57 58 53 52 47 41 36 33 27 31 32 34 35 34 37 37 41 44 50 64 72 72 67 62 58 57 56 58 53 49 44 44 42 38 38 37 35
36 34 36 36 40 41 45 49 57 56 53 51 45 41 33 29 24 22 25 28 28 31 33 39 47 54 66 70 70 66 59 57 56 57 56 52 49 46 46 43 41 42 40 37
32 30 34 34 34 38 40 42 50 54 50 47 45 43 38 29 24 20 16 18 22 26 27 32 41 52 62 66 67 64 60 57 53 55 55 52 50 48 47 45 45 45 43 40
Wind_Direction_500mb
260 240 210 251 217 192 207 231 236 276 274 276 278 241 231 226 215 210 210 211 214 215 215 219 220 221 223 225 229 231 236 245 258 272 287 300 315 324 333 340 342 343 348 348
266 211 222 255 246 232 229 249 261 274 278 278 275 256 250 228 214 214 215 217 219 219 218 219 221 222 225 226 229 233 237 243 253 267 283 300 310 317 326 334 338 343 347 349
268 140 242 261 243 217 205 221 225 244 257 271 249 242 239 231 223 223 222 220 221 223 221 221 221 222 225 226 229 233 237 241 249 259 276 291 302 307 314 325 330 336 342 346
268 236 255 300 99 197 217 243 218 260 271 275 274 278 273 245 232 230 227 225 225 225 224 222 221 222 222 225 229 233 236 239 244 254 265 280 290 297 305 313 320 327 332 337
238 231 302 294 203 177 191 292 229 251 281 294 263 286 277 260 251 245 240 236 231 230 226 222 221 221 221 224 228 233 235 239 243 249 259 271 280 285 293 301 310 317 322 328
167 227 252 57 144 180 152 289 354 283 320 306 220 258 23 331 272 246 241 235 229 227 223 222 222 222 223 226 228 232 235 238 242 248 256 266 274 281 288 295 302 308 315 322
220 249 278 254 145 150 241 5 21 2 348 199 224 255 294 323 327 289 238 234 228 223 224 222 221 223 225 228 231 233 235 238 243 249 255 264 271 278 284 293 301 308 315 322
185 209 260 138 114 199 8 357 347 341 334 311 301 297 288 291 293 290 257 233 227 226 223 220 221 224 227 230 233 233 236 240 244 249 255 262 269 276 284 291 298 306 311 315
205 211 43 198 230 203 315 316 317 321 328 319 305 295 303 298 279 278 268 242 234 230 225 224 224 225 230 232 232 233 236 241 245 249 254 261 267 274 280 288 296 302 306 313
235 246 253 248 261 265 276 307 328 326 325 319 311 311 291 295 291 276 267 253 241 232 229 228 227 228 232 233 233 234 238 241 244 249 254 259 266 270 277 285 292 300 305 308
245 268 272 273 276 340 302 310 314 317 332 347 347 349 329 298 289 286 270 258 247 240 237 235 232 232 233 234 233 234 238 241 244 248 252 257 263 269 277 282 287 293 298 301
257 279 288 290 271 304 302 304 318 316 321 318 314 315 321 320 308 283 275 263 253 246 241 238 236 233 234 234 236 237 239 241 243 247 252 256 262 269 273 279 287 293 296 300
259 268 274 283 290 288 289 284 293 303 303 303 300 301 305 306 306 294 272 263 254 251 248 244 241 236 235 235 236 238 240 242 244 246 250 254 259 266 274 282 280 284 288 292
269 279 275 274 278 284 289 292 292 294 292 297 297 292 296 300 298 291 280 269 261 252 247 243 241 239 237 236 237 239 240 243 244 246 249 253 258 262 266 275 280 282 287 291
259 263 269 277 280 281 283 286 286 290 293 292 294 294 294 287 289 290 286 270 259 250 245 242 240 238 236 235 237 238 240 241 241 244 247 251 256 260 264 269 273 278 286 291
280 282 281 281 281 280 280 283 282 283 284 288 288 290 293 278 273 271 269 264 253 252 250 245 243 240 238 236 236 237 239 240 241 243 245 248 252 256 259 264 267 271 274 278
292 286 292 293 288 288 285 283 280 279 280 280 280 284 286 278 259 257 257 258 259 258 252 247 246 241 239 236 235 237 238 239 239 240 242 245 247 250 254 257 261 264 266 274
280 285 290 288 292 296 296 292 289 287 282 283 280 280 273 269 260 265 275 272 263 255 254 248 239 235 233 233 233 235 235 235 236 237 239 240 242 245 250 251 254 257 263 270
309 312 312 312 305 303 306 305 303 299 293 291 282 273 273 265 262 264 270 271 266 262 257 251 241 233 229 229 229 231 232 232 232 233 234 235 237 242 245 244 245 249 258 268
325 331 338 334 332 324 325 318 311 305 302 297 287 271 269 265 261 261 264 265 264 268 263 253 244 235 230 227 227 228 228 229 229 229 230 231 232 235 234 233 238 245 255 261
317 320 328 340 340 342 341 330 324 318 313 303 289 276 268 269 266 263 260 260 258 258 257 248 241 234 230 226 226 225 224 225 225 225 227 226 229 228 223 227 234 240 247 246
330 331 335 335 333 331 338 340 337 328 322 314 300 284 270 264 263 263 259 259 261 257 254 245 235 228 227 225 227 225 224 224 224 223 223 223 224 221 219 222 228 235 228 217
314 323 332 338 341 338 339 340 341 336 331 327 314 297 277 268 265 262 261 259 260 257 252 245 236 228 222 221 225 224 224 224 224 224 222 221 224 220 218 219 222 219 210 203
312 314 320 330 333 341 341 344 340 339 336 333 326 312 298 283 270 262 263 262 257 253 247 242 235 222 219 219 221 221 222 223 223 224 222 221 221 218 214 215 214 207 202 197
312 312 314 319 327 337 340 343 343 340 341 340 338 332 321 301 284 276 265 257 249 246 238 230 227 220 219 220 221 222 221 223 224 222 218 218 217 215 211 209 206 201 197 193
306 309 308 311 310 323 336 342 341 343 342 345 347 344 336 323 305 288 276 262 250 242 235 227 222 215 217 218 218 221 221 222 221 219 216 217 215 214 210 206 201 198 195 192
311 312 310 308 312 316 322 332 337 339 344 341 345 343 336 330 320 306 287 272 256 243 235 227 220 218 218 217 216 218 221 222 222 217 215 215 214 215 207 203 199 195 192 190
Wind_Speed_850mb
16 14 9 14 15 26 27 34 20 34 30 35 25 27 41 43 39 41 47 51 56 57 54 51 50 48 44 40 35 30 27 24 20 17 15 15 16 17 18 19 20 22 24 25
8 2 14 14 26 33 37 34 38 42 55 44 55 43 37 39 43 50 52 58 60 60 59 57 55 52 47 43 38 34 29 26 23 20 17 15 16 17 17 18 20 21 24 25
10 4 5 15 26 29 16 21 20 20 29 15 11 19 28 35 45 53 56 59 64 66 66 63 58 54 50 45 41 38 32 28 25 22 19 17 16 17 18 18 19 21 23 24
6 2 16 6 4 7 23 22 36 38 41 29 24 16 23 27 37 46 53 59 62 63 65 64 58 55 51 48 46 41 36 32 28 24 21 20 19 18 19 20 21 22 23 24
7 12 19 25 9 13 12 10 7 31 35 36 23 23 44 41 39 42 43 48 56 58 59 62 61 57 56 54 50 45 41 36 31 28 25 23 23 23 23 24 25 26 26 26
6 7 10 2 5 8 8 13 6 9 21 9 7 6 4 11 18 45 44 42 47 54 57 60 61 60 60 57 54 50 43 38 35 32 28 27 27 27 27 28 27 28 28 29
19 10 15 14 18 14 6 4 9 12 13 4 9 16 22 19 20 18 37 40 42 52 58 60 61 62 63 60 59 49 43 42 39 35 32 30 29 29 29 29 31 30 30 29
8 10 17 18 16 9 10 14 20 20 28 24 33 37 38 34 29 23 24 38 44 51 58 61 65 64 64 64 54 51 48 46 41 38 36 33 31 30 31 31 31 32 32 29
20 11 9 24 7 21 17 31 30 31 35 42 43 49 40 33 33 28 26 33 42 47 56 63 66 65 64 58 56 53 53 49 44 40 39 36 34 32 32 32 32 32 32 31
4 16 30 30 32 36 32 16 23 41 51 46 47 44 47 42 35 34 33 35 40 47 56 63 65 65 60 58 55 54 55 51 48 45 42 40 38 36 35 33 32 33 31 29
13 26 42 41 21 3 17 36 43 39 29 29 35 48 45 45 48 42 39 40 43 46 52 58 62 63 60 58 57 58 56 53 51 49 46 44 42 40 38 34 32 33 32 31
22 8 10 22 15 43 43 50 37 23 40 49 61 67 62 56 49 50 46 44 47 49 52 54 59 61 61 58 57 59 58 56 53 50 47 45 44 43 39 37 34 33 34 33
41 34 40 51 62 66 57 40 50 65 73 76 72 73 71 65 58 50 51 51 51 51 49 52 55 59 61 60 59 59 59 56 54 50 48 45 43 41 37 35 29 31 32 31
34 33 45 48 48 48 54 68 76 78 74 75 75 72 62 57 56 56 54 53 48 50 52 53 54 58 59 60 60 59 57 57 54 52 49 45 41 39 38 34 28 25 28 27
60 55 67 68 65 65 64 58 64 67 77 80 74 71 59 56 53 52 49 47 48 52 55 58 59 58 58 60 62 59 58 57 55 53 49 44 41 40 37 33 31 28 27 27
37 44 50 59 64 67 67 70 72 72 66 76 71 65 55 53 50 50 49 48 53 56 57 59 60 56 57 57 60 60 58 55 52 50 48 44 42 39 36 32 30 27 25 24
33 37 35 42 48 53 58 58 62 64 63 69 72 73 64 52 44 47 54 56 57 54 58 61 56 56 55 56 58 58 57 54 52 52 49 44 41 38 35 31 30 27 25 25
27 32 33 38 46 49 57 56 57 60 61 64 72 73 70 65 56 45 46 49 57 62 67 62 60 60 57 55 57 57 55 53 53 52 47 44 41 37 35 32 29 27 26 25
15 23 26 31 35 40 48 59 63 65 65 62 63 73 73 74 81 75 69 66 65 66 71 64 63 62 61 60 58 57 55 54 53 52 48 45 41 39 35 33 30 28 26 27
22 24 31 35 36 38 46 52 57 61 61 61 60 66 75 74 74 78 81 82 73 70 69 65 61 65 65 63 62 57 55 55 54 53 50 46 42 37 34 34 31 28 26 27
24 29 32 37 43 48 48 50 55 59 61 59 58 61 69 67 70 72 75 79 72 70 65 59 59 64 68 67 67 62 58 57 57 55 52 49 44 39 37 35 32 29 26 23
25 31 36 38 41 48 53 56 54 56 57 57 51 50 54 62 66 65 65 67 66 63 58 59 62 64 65 66 70 63 60 57 56 55 52 50 43 42 40 38 35 30 24 21
25 30 38 43 47 52 54 54 56 56 56 54 49 43 45 48 51 55 61 54 57 61 53 52 57 60 59 67 72 64 60 57 57 56 55 51 42 43 42 40 35 30 28 27
32 34 37 45 48 49 56 56 56 54 52 48 44 39 35 36 40 42 46 45 44 46 44 47 47 55 63 72 73 66 62 58 57 56 57 50 44 40 43 42 38 33 33 31
38 38 37 39 46 48 51 57 58 53 52 47 41 36 33 27 31 32 34 35 34 37 37 41 44 50 64 72 72 67 62 58 57 56 58 53 49 44 44 42 38 38 37 35
36 34 36 36 40 41 45 49 57 56 53 51 45 41 33 29 24 22 25 28 28 31 33 39 47 54 66 70 70 66 59 57 56 57 56 52 49 46 46 43 41 42 40 37
32 30 34 34 34 38 40 42 50 54 50 47 45 43 38 29 24 20 16 18 22 26 27 32 41 52 62 66 67 64 60 57 53 55 55 52 50 48 47 45 45 45 43 40
Wind_Direction_850mb
260 240 210 251 217 192 207 231 236 276 274 276 278 241 231 226 215 210 210 211 214 215 215 219 220 221 223 225 229 231 236 245 258 272 287 300 315 324 333 340 342 343 348 348
266 211 222 255 246 232 229 249 261 274 278 278 275 256 250 228 214 214 215 217 219 219 218 219 221 222 225 226 229 233 237 243 253 267 283 300 310 317 326 334 338 343 347 349
268 140 242 261 243 217 205 221 225 244 257 271 249 242 239 231 223 223 222 220 221 223 221 221 221 222 225 226 229 233 237 241 249 259 276 291 302 307 314 325 330 336 342 346
268 236 255 300 99 197 217 243 218 260 271 275 274 278 273 245 232 230 227 225 225 225 224 222 221 222 222 225 229 233 236 239 244 254 265 280 290 297 305 313 320 327 332 337
238 231 302 294 203 177 191 292 229 251 281 294 263 286 277 260 251 245 240 236 231 230 226 222 221 221 221 224 228 233 235 239 243 249 259 271 280 285 293 301 310 317 322 328
167 227 252 57 144 180 152 289 354 283 320 306 220 258 23 331 272 246 241 235 229 227 223 222 222 222 223 226 228 232 235 238 242 248 256 266 274 281 288 295 302 308 315 322
220 249 278 254 145 150 241 5 21 2 348 199 224 255 294 323 327 289 238 234 228 223 224 222 221 223 225 228 231 233 235 238 243 249 255 264 271 278 284 293 301 308 315 322
185 209 260 138 114 199 8 357 347 341 334 311 301 297 288 291 293 290 257 233 227 226 223 220 221 224 227 230 233 233 236 240 244 249 255 262 269 276 284 291 298 306 311 315
205 211 43 198 230 203 315 316 317 321 328 319 305 295 303 298 279 278 268 242 234 230 225 224 224 225 230 232 232 233 236 241 245 249 254 261 267 274 280 288 296 302 306 313
235 246 253 248 261 265 276 307 328 326 325 319 311 311 291 295 291 276 267 253 241 232 229 228 227 228 232 233 233 234 238 241 244 249 254 259 266 270 277 285 292 300 305 308
245 268 272 273 276 340 302 310 314 317 332 347 347 349 329 298 289 286 270 258 247 240 237 235 232 232 233 234 233 234 238 241 244 248 252 257 263 269 277 282 287 293 298 301
257 279 288 290 271 304 302 304 318 316 321 318 314 315 321 320 308 283 275 263 253 246 241 238 236 233 234 234 236 237 239 241 243 247 252 256 262 269 273 279 287 293 296 300
259 268 274 283 290 288 289 284 293 303 303 303 300 301 305 306 306 294 272 263 254 251 248 244 241 236 235 235 236 238 240 242 244 246 250 254 259 266 274 282 280 284 288 292
269 279 275 274 278 284 289 292 292 294 292 297 297 292 296 300 298 291 280 269 261 252 247 243 241 239 237 236 237 239 240 243 244 246 249 253 258 262 266 275 280 282 287 291
259 263 269 277 280 281 283 286 286 290 293 292 294 294 294 287 289 290 286 270 259 250 245 242 240 238 236 235 237 238 240 241 241 244 247 251 256 260 264 269 273 278 286 291
280 282 281 281 281 280 280 283 282 283 284 288 288 290 293 278 273 271 269 264 253 252 250 245 243 240 238 236 236 237 239 240 241 243 245 248 252 256 259 264 267 271 274 278
292 286 292 293 288 288 285 283 280 279 280 280 280 284 286 278 259 257 257 258 259 258 252 247 246 241 239 236 235 237 238 239 239 240 242 245 247 250 254 257 261 264 266 274
280 285 290 288 292 296 296 292 289 287 282 283 280 280 273 269 260 265 275 272 263 255 254 248 239 235 233 233 233 235 235 235 236 237 239 240 242 245 250 251 254 257 263 270
309 312 312 312 305 303 306 305 303 299 293 291 282 273 273 265 262 264 270 271 266 262 257 251 241 233 229 229 229 231 232 232 232 233 234 235 237 242 245 244 245 249 258 268
325 331 338 334 332 324 325 318 311 305 302 297 287 271 269 265 261 261 264 265 264 268 263 253 244 235 230 227 227 228 228 229 229 229 230 231 232 235 234 233 238 245 255 261
317 320 328 340 340 342 341 330 324 318 313 303 289 276 268 269 266 263 260 260 258 258 257 248 241 234 230 226 226 225 224 225 225 225 227 226 229 228 223 227 234 240 247 246
330 331 335 335 333 331 338 340 337 328 322 314 300 284 270 264 263 263 259 259 261 257 254 245 235 228 227 225 227 225 224 224 224 223 223 223 224 221 219 222 228 235 228 217
314 323 332 338 341 338 339 340 341 336 331 327 314 297 277 268 265 262 261 259 260 257 252 245 236 228 222 221 225 224 224 224 224 224 222 221 224 220 218 219 222 219 210 203
312 314 320 330 333 341 341 344 340 339 336 333 326 312 298 283 270 262 263 262 257 253 247 242 235 222 219 219 221 221 222 223 223 224 222 221 221 218 214 215 214 207 202 197
312 312 314 319 327 337 340 343 343 340 341 340 338 332 321 301 284 276 265 257 249 246 238 230 227 220 219 220 221 222 221 223 224 222 218 218 217 215 211 209 206 201 197 193
306 309 308 311 310 323 336 342 341 343 342 345 347 344 336 323 305 288 276 262 250 242 235 227 222 215 217 218 218 221 221 222 221 219 216 217 215 214 210 206 201 198 195 192
311 312 310 308 312 316 322 332 337 339 344 341 345 343 336 330 320 306 287 272 256 243 235 227 220 218 218 217 216 218 221 222 222 217 215 215 214 215 207 203 199 195 192 190